sat.trackr.live / text

‹ back to catalog

STARLINK-37370

NORAD 68806 · 2026-089E

PAYLOAD ACTIVE UNKNOWN

§ Identity

Operator
Country
US
Launch date
2026-04-23
Launch site
AFWTR
Launch vehicle
Mass (kg)
RCS (m²)

Purposes: comms

External: N2YO · Heavens-Above · Gunter

§ Orbital elements

Epoch: 2026-09-20T00:50:01.670784Z

Period
93.91 min
Inclination
97.2871°
Eccentricity
0.0000858
Mean motion
15.33459819 rev/d
Perigee alt
464.9 km
Apogee alt
466.1 km
Semi-major
6,843.6 km
B*
3.5534e-4
RAAN
108.7419°
Arg perigee
96.0493°
Mean anomaly
264.0847°
Rev number
2,318

§ Raw data

STARLINK-373701 68806U 26089E   26263.03474156  .00011419  00000+0  35534-3 0  99902 68806  97.2871 108.7419 0000858  96.0493 264.0847 15.33459819 23189

JSON: /api/v1/satellites/68806 · /tle

For live sub-satellite position, see the globe view (requires WebGL).

§ Visibility from observer

Set your observer location to see the next 7 days of passes ≥ 10°. The values pass through the URL so the page stays shareable.

No JS? Fill the form by hand. The geolocation button needs JavaScript.